Information on these data can be found in provided Readme document
Contact Info: Zachary Fasnacht (zachary.fasnacht@ssaihq.com); Nickolay Krotkov (nickolay.a.krotkov@nasa.gov); Lok Lamsal (lok.lamsal@nasa.gov)

FillValue: -999.
ScaleFactor: 1e15
Units: molecules/cm^2

Date(yyyy-mm-dd),City,Country,LonCenter,LatCenter,BoundingCoordinates,Median,Q1,Q3,Mean,Baseline_Median,Baseline_Q1,Baseline_Q3,Baseline_Mean,NumGoodSamples,NumTotalSamples
2015-01-01,Daegu,SouthKorea,128.6,35.8667,[128.1 35.3667 129.1 36.3667],7.749,5.375,10.478,8.201,7.041,4.994,9.649,7.589,216.0,585.0
2015-01-02,Daegu,SouthKorea,128.6,35.8667,[128.1 35.3667 129.1 36.3667],7.734,5.25,10.728,8.242,7.107,5.017,9.683,7.664,187.0,587.0
2015-01-03,Daegu,SouthKorea,128.6,35.8667,[128.1 35.3667 129.1 36.3667],7.267,4.537,10.22,7.757,6.813,4.803,9.173,7.313,219.0,578.0
2015-01-04,Daegu,SouthKorea,128.6,35.8667,[128.1 35.3667 129.1 36.3667],6.231,4.224,9.369,7.346,6.588,4.799,8.945,7.251,192.0,583.0
2015-01-05,Daegu,SouthKorea,128.6,35.8667,[128.1 35.3667 129.1 36.3667],6.027,4.474,8.78,7.098,6.519,4.769,8.855,7.174,219.0,579.0
2015-01-06,Daegu,SouthKorea,128.6,35.8667,[128.1 35.3667 129.1 36.3667],5.917,4.287,8.206,6.69,6.539,4.662,8.877,7.117,203.0,581.0
2015-01-07,Daegu,SouthKorea,128.6,35.8667,[128.1 35.3667 129.1 36.3667],5.575,4.188,7.808,6.179,6.5,4.556,8.842,7.114,174.0,586.0
2015-01-08,Daegu,SouthKorea,128.6,35.8667,[128.1 35.3667 129.1 36.3667],5.649,4.188,7.847,6.296,6.368,4.668,8.675,7.094,179.0,588.0
2015-01-09,Daegu,SouthKorea,128.6,35.8667,[128.1 35.3667 129.1 36.3667],5.48,4.188,7.847,6.242,6.535,4.438,8.97,7.132,161.0,592.0
2015-01-10,Daegu,SouthKorea,128.6,35.8667,[128.1 35.3667 129.1 36.3667],5.48,4.188,7.847,6.242,6.572,4.483,9.183,7.197,161.0,551.0
2015-01-11,Daegu,SouthKorea,128.6,35.8667,[128.1 35.3667 129.1 36.3667],5.917,4.458,8.24,6.755,6.978,4.679,9.432,7.465,121.0,548.0
2015-01-12,Daegu,SouthKorea,128.6,35.8667,[128.1 35.3667 129.1 36.3667],5.928,4.681,8.722,6.877,6.937,4.737,9.418,7.455,128.0,546.0
2015-01-13,Daegu,SouthKorea,128.6,35.8667,[128.1 35.3667 129.1 36.3667],6.027,4.681,8.722,6.888,7.142,4.637,9.785,7.7,126.0,553.0
2015-01-14,Daegu,SouthKorea,128.6,35.8667,[128.1 35.3667 129.1 36.3667],5.928,4.726,8.74,6.972,7.172,4.798,9.863,7.799,95.0,550.0
2015-01-15,Daegu,SouthKorea,128.6,35.8667,[128.1 35.3667 129.1 36.3667],5.928,4.726,8.74,6.972,6.97,4.725,9.553,7.606,95.0,562.0
2015-01-16,Daegu,SouthKorea,128.6,35.8667,[128.1 35.3667 129.1 36.3667],5.575,4.458,7.906,6.32,7.519,5.04,10.299,8.014,71.0,557.0
2015-01-17,Daegu,SouthKorea,128.6,35.8667,[128.1 35.3667 129.1 36.3667],5.928,4.726,8.74,7.137,7.291,5.093,9.979,7.914,95.0,552.0
2015-01-18,Daegu,SouthKorea,128.6,35.8667,[128.1 35.3667 129.1 36.3667],6.682,5.233,9.117,8.038,7.629,5.138,10.064,8.109,63.0,550.0
2015-01-19,Daegu,SouthKorea,128.6,35.8667,[128.1 35.3667 129.1 36.3667],6.682,5.233,9.117,8.038,7.67,5.272,10.265,8.245,63.0,543.0
2015-01-20,Daegu,SouthKorea,128.6,35.8667,[128.1 35.3667 129.1 36.3667],11.026,8.858,12.989,11.447,7.826,5.441,10.765,8.506,36.0,547.0
2015-01-21,Daegu,SouthKorea,128.6,35.8667,[128.1 35.3667 129.1 36.3667],9.117,8.048,11.094,10.162,7.643,5.526,10.401,8.44,47.0,541.0
2015-01-22,Daegu,SouthKorea,128.6,35.8667,[128.1 35.3667 129.1 36.3667],9.117,8.048,11.094,10.162,7.392,5.426,10.372,8.401,47.0,545.0
2015-01-23,Daegu,SouthKorea,128.6,35.8667,[128.1 35.3667 129.1 36.3667],8.858,6.881,15.486,11.96,8.276,5.707,11.275,9.067,62.0,549.0
2015-01-24,Daegu,SouthKorea,128.6,35.8667,[128.1 35.3667 129.1 36.3667],8.223,6.659,11.852,10.867,8.296,6.133,10.938,9.219,91.0,551.0
2015-01-25,Daegu,SouthKorea,128.6,35.8667,[128.1 35.3667 129.1 36.3667],8.223,6.659,11.852,10.867,8.113,5.961,10.775,9.08,91.0,583.0
2015-01-26,Daegu,SouthKorea,128.6,35.8667,[128.1 35.3667 129.1 36.3667],8.858,6.87,15.725,12.162,7.786,5.717,10.75,8.889,110.0,569.0
2015-01-27,Daegu,SouthKorea,128.6,35.8667,[128.1 35.3667 129.1 36.3667],9.197,6.771,15.807,12.317,7.716,5.55,10.785,8.688,103.0,567.0
2015-01-28,Daegu,SouthKorea,128.6,35.8667,[128.1 35.3667 129.1 36.3667],8.408,6.771,15.486,11.773,7.317,5.349,10.381,8.335,113.0,565.0
2015-01-29,Daegu,SouthKorea,128.6,35.8667,[128.1 35.3667 129.1 36.3667],8.408,6.771,15.486,11.773,7.521,5.403,10.464,8.492,113.0,571.0
2015-01-30,Daegu,SouthKorea,128.6,35.8667,[128.1 35.3667 129.1 36.3667],8.097,6.494,11.852,10.537,7.431,5.396,10.126,8.421,146.0,567.0
2015-01-31,Daegu,SouthKorea,128.6,35.8667,[128.1 35.3667 129.1 36.3667],8.048,6.494,11.605,10.353,7.121,5.361,9.716,8.127,176.0,580.0
2015-02-01,Daegu,SouthKorea,128.6,35.8667,[128.1 35.3667 129.1 36.3667],7.85,6.416,11.223,10.233,7.426,5.51,10.238,8.562,152.0,576.0
2015-02-02,Daegu,SouthKorea,128.6,35.8667,[128.1 35.3667 129.1 36.3667],7.789,6.125,10.227,9.884,7.388,5.374,9.991,8.389,178.0,571.0
2015-02-03,Daegu,SouthKorea,128.6,35.8667,[128.1 35.3667 129.1 36.3667],7.789,6.125,10.227,9.884,7.326,5.234,9.838,8.283,178.0,569.0
2015-02-04,Daegu,SouthKorea,128.6,35.8667,[128.1 35.3667 129.1 36.3667],8.048,6.354,11.924,10.69,7.156,5.306,10.2,8.248,191.0,560.0
2015-02-05,Daegu,SouthKorea,128.6,35.8667,[128.1 35.3667 129.1 36.3667],7.853,6.098,14.157,10.928,7.015,5.124,10.531,8.172,180.0,568.0
2015-02-06,Daegu,SouthKorea,128.6,35.8667,[128.1 35.3667 129.1 36.3667],7.379,5.845,11.555,10.106,7.168,5.055,10.052,8.204,212.0,563.0
2015-02-07,Daegu,SouthKorea,128.6,35.8667,[128.1 35.3667 129.1 36.3667],7.379,5.801,10.574,9.346,6.91,5.043,9.59,7.861,192.0,568.0
2015-02-08,Daegu,SouthKorea,128.6,35.8667,[128.1 35.3667 129.1 36.3667],7.789,5.844,11.276,9.66,7.038,4.969,9.737,7.937,163.0,573.0
2015-02-09,Daegu,SouthKorea,128.6,35.8667,[128.1 35.3667 129.1 36.3667],7.789,5.844,11.276,9.66,7.172,4.896,9.758,7.938,163.0,578.0
2015-02-10,Daegu,SouthKorea,128.6,35.8667,[128.1 35.3667 129.1 36.3667],7.373,5.764,9.426,8.636,7.022,4.669,9.575,7.641,144.0,586.0
2015-02-11,Daegu,SouthKorea,128.6,35.8667,[128.1 35.3667 129.1 36.3667],7.373,5.764,9.426,8.636,7.034,4.884,9.705,7.797,144.0,544.0
2015-02-12,Daegu,SouthKorea,128.6,35.8667,[128.1 35.3667 129.1 36.3667],7.323,5.683,9.744,8.72,7.256,4.931,9.932,8.005,134.0,542.0
2015-02-13,Daegu,SouthKorea,128.6,35.8667,[128.1 35.3667 129.1 36.3667],7.001,5.188,9.426,8.064,6.955,4.687,9.571,7.723,174.0,541.0
2015-02-14,Daegu,SouthKorea,128.6,35.8667,[128.1 35.3667 129.1 36.3667],6.182,4.84,9.814,8.19,6.898,4.576,9.674,7.65,141.0,550.0
2015-02-15,Daegu,SouthKorea,128.6,35.8667,[128.1 35.3667 129.1 36.3667],5.949,4.421,8.939,7.416,6.968,4.549,9.725,7.718,131.0,547.0
2015-02-16,Daegu,SouthKorea,128.6,35.8667,[128.1 35.3667 129.1 36.3667],5.801,4.284,8.712,7.178,6.317,4.336,10.003,7.432,161.0,560.0
2015-02-17,Daegu,SouthKorea,128.6,35.8667,[128.1 35.3667 129.1 36.3667],5.683,4.284,8.677,7.248,6.29,4.372,9.821,7.402,135.0,555.0
2015-02-18,Daegu,SouthKorea,128.6,35.8667,[128.1 35.3667 129.1 36.3667],5.801,4.284,8.807,7.331,6.617,5.011,9.722,7.718,137.0,551.0
2015-02-19,Daegu,SouthKorea,128.6,35.8667,[128.1 35.3667 129.1 36.3667],5.562,4.132,7.589,6.004,6.892,4.843,9.784,7.718,124.0,555.0
2015-02-20,Daegu,SouthKorea,128.6,35.8667,[128.1 35.3667 129.1 36.3667],5.98,4.378,9.028,6.656,6.984,4.91,10.143,7.886,152.0,543.0
2015-02-21,Daegu,SouthKorea,128.6,35.8667,[128.1 35.3667 129.1 36.3667],5.557,3.686,9.201,6.422,7.007,4.946,10.017,7.858,120.0,550.0
2015-02-22,Daegu,SouthKorea,128.6,35.8667,[128.1 35.3667 129.1 36.3667],5.188,3.879,8.64,6.249,6.737,5.001,9.807,7.756,136.0,544.0
2015-02-23,Daegu,SouthKorea,128.6,35.8667,[128.1 35.3667 129.1 36.3667],5.188,3.879,8.64,6.249,6.69,4.51,9.807,7.596,136.0,549.0
2015-02-24,Daegu,SouthKorea,128.6,35.8667,[128.1 35.3667 129.1 36.3667],5.188,3.879,8.64,6.249,6.688,4.477,9.695,7.593,136.0,553.0
2015-02-25,Daegu,SouthKorea,128.6,35.8667,[128.1 35.3667 129.1 36.3667],5.311,3.879,8.51,6.23,7.251,4.947,9.974,8.061,163.0,556.0
2015-02-26,Daegu,SouthKorea,128.6,35.8667,[128.1 35.3667 129.1 36.3667],5.311,3.879,8.51,6.23,7.233,4.825,10.012,7.992,163.0,588.0
2015-02-27,Daegu,SouthKorea,128.6,35.8667,[128.1 35.3667 129.1 36.3667],5.869,4.009,9.498,7.101,7.24,4.982,10.03,8.129,180.0,573.0
2015-02-28,Daegu,SouthKorea,128.6,35.8667,[128.1 35.3667 129.1 36.3667],6.246,3.708,9.81,7.485,7.613,4.944,10.253,8.288,140.0,571.0
2015-03-01,Daegu,SouthKorea,128.6,35.8667,[128.1 35.3667 129.1 36.3667],7.711,4.686,11.267,8.396,7.769,5.124,10.56,8.495,177.0,569.0
2015-03-02,Daegu,SouthKorea,128.6,35.8667,[128.1 35.3667 129.1 36.3667],8.381,5.739,11.654,9.247,7.752,5.294,10.531,8.5,157.0,576.0
2015-03-03,Daegu,SouthKorea,128.6,35.8667,[128.1 35.3667 129.1 36.3667],8.64,6.373,11.419,9.38,7.737,5.485,10.492,8.429,160.0,572.0
2015-03-04,Daegu,SouthKorea,128.6,35.8667,[128.1 35.3667 129.1 36.3667],8.951,6.842,11.551,9.789,8.11,6.143,10.798,8.85,191.0,586.0
2015-03-05,Daegu,SouthKorea,128.6,35.8667,[128.1 35.3667 129.1 36.3667],8.951,6.842,11.551,9.741,7.99,6.023,10.872,8.883,189.0,578.0
2015-03-06,Daegu,SouthKorea,128.6,35.8667,[128.1 35.3667 129.1 36.3667],8.951,6.842,11.551,9.758,7.827,5.977,10.637,8.797,193.0,570.0
2015-03-07,Daegu,SouthKorea,128.6,35.8667,[128.1 35.3667 129.1 36.3667],8.811,6.689,11.534,9.82,7.764,6.089,10.537,8.818,165.0,573.0
2015-03-08,Daegu,SouthKorea,128.6,35.8667,[128.1 35.3667 129.1 36.3667],8.722,6.373,11.534,9.771,7.767,5.91,10.541,8.716,196.0,562.0
2015-03-09,Daegu,SouthKorea,128.6,35.8667,[128.1 35.3667 129.1 36.3667],9.117,7.002,12.19,10.179,7.837,6.045,10.677,8.788,180.0,568.0
2015-03-10,Daegu,SouthKorea,128.6,35.8667,[128.1 35.3667 129.1 36.3667],9.25,7.198,12.548,10.426,8.152,6.422,11.029,9.079,194.0,562.0
2015-03-11,Daegu,SouthKorea,128.6,35.8667,[128.1 35.3667 129.1 36.3667],9.25,7.198,12.548,10.426,8.266,6.471,11.513,9.43,194.0,566.0
2015-03-12,Daegu,SouthKorea,128.6,35.8667,[128.1 35.3667 129.1 36.3667],8.444,6.081,11.551,9.303,8.018,6.063,10.97,8.951,188.0,568.0
2015-03-13,Daegu,SouthKorea,128.6,35.8667,[128.1 35.3667 129.1 36.3667],8.445,6.181,12.127,9.513,7.842,6.037,10.732,8.863,216.0,572.0
2015-03-14,Daegu,SouthKorea,128.6,35.8667,[128.1 35.3667 129.1 36.3667],8.171,5.895,11.463,9.093,7.608,5.791,10.505,8.619,199.0,577.0
2015-03-15,Daegu,SouthKorea,128.6,35.8667,[128.1 35.3667 129.1 36.3667],8.171,5.895,11.463,9.093,7.685,5.814,10.48,8.627,199.0,536.0
2015-03-16,Daegu,SouthKorea,128.6,35.8667,[128.1 35.3667 129.1 36.3667],7.976,4.816,11.161,8.654,7.752,5.565,10.384,8.568,162.0,534.0
2015-03-17,Daegu,SouthKorea,128.6,35.8667,[128.1 35.3667 129.1 36.3667],7.555,5.417,10.513,8.349,7.654,5.596,10.33,8.427,202.0,533.0
2015-03-18,Daegu,SouthKorea,128.6,35.8667,[128.1 35.3667 129.1 36.3667],7.384,4.816,10.679,8.336,7.323,5.151,9.895,8.102,169.0,542.0
2015-03-19,Daegu,SouthKorea,128.6,35.8667,[128.1 35.3667 129.1 36.3667],7.693,5.119,10.729,8.316,7.073,5.041,9.742,7.876,173.0,541.0
2015-03-20,Daegu,SouthKorea,128.6,35.8667,[128.1 35.3667 129.1 36.3667],7.667,5.309,10.71,8.276,6.999,5.081,9.741,7.742,193.0,556.0
2015-03-21,Daegu,SouthKorea,128.6,35.8667,[128.1 35.3667 129.1 36.3667],7.632,5.309,10.71,8.25,6.911,4.933,9.762,7.641,189.0,551.0
2015-03-22,Daegu,SouthKorea,128.6,35.8667,[128.1 35.3667 129.1 36.3667],7.586,4.914,10.476,8.08,6.906,4.94,9.645,7.581,213.0,546.0
2015-03-23,Daegu,SouthKorea,128.6,35.8667,[128.1 35.3667 129.1 36.3667],7.555,4.563,9.718,7.815,6.954,4.854,9.648,7.57,182.0,547.0
2015-03-24,Daegu,SouthKorea,128.6,35.8667,[128.1 35.3667 129.1 36.3667],7.555,4.563,9.718,7.815,6.914,4.833,9.601,7.504,182.0,540.0
2015-03-25,Daegu,SouthKorea,128.6,35.8667,[128.1 35.3667 129.1 36.3667],7.368,4.415,9.667,7.372,6.925,4.843,9.669,7.494,168.0,546.0
2015-03-26,Daegu,SouthKorea,128.6,35.8667,[128.1 35.3667 129.1 36.3667],7.368,4.415,9.667,7.372,6.686,4.659,9.03,7.084,168.0,542.0
2015-03-27,Daegu,SouthKorea,128.6,35.8667,[128.1 35.3667 129.1 36.3667],7.991,6.601,10.382,8.705,6.441,4.804,8.927,7.163,147.0,546.0
2015-03-28,Daegu,SouthKorea,128.6,35.8667,[128.1 35.3667 129.1 36.3667],7.693,6.183,9.718,8.126,6.463,4.684,9.028,7.007,120.0,546.0
2015-03-29,Daegu,SouthKorea,128.6,35.8667,[128.1 35.3667 129.1 36.3667],7.693,6.183,9.718,8.126,6.462,4.676,9.064,7.043,120.0,552.0
2015-03-30,Daegu,SouthKorea,128.6,35.8667,[128.1 35.3667 129.1 36.3667],7.693,6.183,9.718,8.126,6.264,4.666,9.048,6.907,120.0,580.0
2015-03-31,Daegu,SouthKorea,128.6,35.8667,[128.1 35.3667 129.1 36.3667],7.693,6.183,9.718,8.126,6.442,4.803,8.536,6.855,120.0,566.0
2015-04-01,Daegu,SouthKorea,128.6,35.8667,[128.1 35.3667 129.1 36.3667],8.59,5.607,11.813,8.639,6.65,4.677,9.047,6.978,80.0,562.0
2015-04-02,Daegu,SouthKorea,128.6,35.8667,[128.1 35.3667 129.1 36.3667],7.693,4.561,10.653,7.929,6.932,4.983,9.233,7.232,90.0,558.0
2015-04-03,Daegu,SouthKorea,128.6,35.8667,[128.1 35.3667 129.1 36.3667],4.561,3.251,7.372,5.427,6.478,4.707,8.639,6.762,55.0,566.0
2015-04-04,Daegu,SouthKorea,128.6,35.8667,[128.1 35.3667 129.1 36.3667],8.127,4.561,9.255,7.579,6.748,4.626,8.53,6.865,69.0,566.0
2015-04-05,Daegu,SouthKorea,128.6,35.8667,[128.1 35.3667 129.1 36.3667],7.991,4.561,9.255,7.502,6.824,4.747,8.636,6.887,75.0,581.0
2015-04-06,Daegu,SouthKorea,128.6,35.8667,[128.1 35.3667 129.1 36.3667],8.389,4.8,9.4,7.887,6.715,4.723,8.511,6.816,51.0,573.0
2015-04-07,Daegu,SouthKorea,128.6,35.8667,[128.1 35.3667 129.1 36.3667],8.47,5.396,10.467,8.329,6.719,4.796,8.505,6.78,66.0,569.0
2015-04-08,Daegu,SouthKorea,128.6,35.8667,[128.1 35.3667 129.1 36.3667],8.389,4.8,10.329,7.956,6.898,4.909,8.628,6.932,82.0,567.0
2015-04-09,Daegu,SouthKorea,128.6,35.8667,[128.1 35.3667 129.1 36.3667],7.834,4.618,9.583,7.785,6.723,4.984,8.234,6.798,87.0,558.0
2015-04-10,Daegu,SouthKorea,128.6,35.8667,[128.1 35.3667 129.1 36.3667],7.834,4.618,9.583,7.785,6.799,4.998,8.277,6.864,87.0,563.0
2015-04-11,Daegu,SouthKorea,128.6,35.8667,[128.1 35.3667 129.1 36.3667],7.752,4.618,9.4,7.652,7.082,5.258,8.457,7.009,95.0,561.0
2015-04-12,Daegu,SouthKorea,128.6,35.8667,[128.1 35.3667 129.1 36.3667],7.834,5.189,9.583,7.775,7.102,5.38,8.433,6.981,94.0,568.0
2015-04-13,Daegu,SouthKorea,128.6,35.8667,[128.1 35.3667 129.1 36.3667],7.834,5.189,9.583,7.775,6.895,5.045,8.397,6.806,94.0,569.0
2015-04-14,Daegu,SouthKorea,128.6,35.8667,[128.1 35.3667 129.1 36.3667],7.364,4.618,9.288,7.522,6.781,4.981,8.228,6.722,122.0,578.0
2015-04-15,Daegu,SouthKorea,128.6,35.8667,[128.1 35.3667 129.1 36.3667],7.752,4.8,9.4,7.719,6.767,4.868,8.253,6.667,139.0,585.0
2015-04-16,Daegu,SouthKorea,128.6,35.8667,[128.1 35.3667 129.1 36.3667],7.752,4.8,9.4,7.719,6.631,4.824,8.058,6.567,139.0,545.0
2015-04-17,Daegu,SouthKorea,128.6,35.8667,[128.1 35.3667 129.1 36.3667],8.284,6.001,10.307,8.184,6.682,4.967,8.151,6.603,129.0,502.0
2015-04-18,Daegu,SouthKorea,128.6,35.8667,[128.1 35.3667 129.1 36.3667],6.597,4.795,9.077,7.339,6.547,5.074,8.106,6.692,168.0,499.0
2015-04-19,Daegu,SouthKorea,128.6,35.8667,[128.1 35.3667 129.1 36.3667],5.888,4.368,7.664,6.45,6.489,5.039,7.899,6.618,134.0,504.0
2015-04-20,Daegu,SouthKorea,128.6,35.8667,[128.1 35.3667 129.1 36.3667],6.076,4.73,8.104,6.686,6.421,4.785,8.051,6.576,160.0,501.0
2015-04-21,Daegu,SouthKorea,128.6,35.8667,[128.1 35.3667 129.1 36.3667],6.076,4.73,8.104,6.686,6.312,4.754,7.891,6.515,160.0,517.0
2015-04-22,Daegu,SouthKorea,128.6,35.8667,[128.1 35.3667 129.1 36.3667],6.014,4.706,7.364,6.363,6.27,4.72,7.723,6.419,145.0,513.0
2015-04-23,Daegu,SouthKorea,128.6,35.8667,[128.1 35.3667 129.1 36.3667],6.049,4.73,7.664,6.529,6.179,4.427,7.834,6.278,135.0,509.0
2015-04-24,Daegu,SouthKorea,128.6,35.8667,[128.1 35.3667 129.1 36.3667],6.049,4.718,7.664,6.454,6.016,4.395,7.823,6.202,148.0,507.0
2015-04-25,Daegu,SouthKorea,128.6,35.8667,[128.1 35.3667 129.1 36.3667],6.041,4.737,7.213,6.424,5.781,4.303,7.519,6.064,166.0,497.0
2015-04-26,Daegu,SouthKorea,128.6,35.8667,[128.1 35.3667 129.1 36.3667],6.041,4.737,7.214,6.445,5.873,4.328,7.459,6.094,158.0,500.0
2015-04-27,Daegu,SouthKorea,128.6,35.8667,[128.1 35.3667 129.1 36.3667],5.791,4.73,7.468,6.305,5.766,4.318,7.555,6.051,191.0,497.0
2015-04-28,Daegu,SouthKorea,128.6,35.8667,[128.1 35.3667 129.1 36.3667],5.693,4.706,7.267,6.197,5.708,4.361,7.477,6.055,208.0,505.0
2015-04-29,Daegu,SouthKorea,128.6,35.8667,[128.1 35.3667 129.1 36.3667],5.693,4.645,7.214,6.163,5.677,4.236,7.523,6.032,188.0,510.0
2015-04-30,Daegu,SouthKorea,128.6,35.8667,[128.1 35.3667 129.1 36.3667],5.673,4.574,7.224,6.263,5.333,4.132,7.323,5.929,197.0,511.0
2015-05-01,Daegu,SouthKorea,128.6,35.8667,[128.1 35.3667 129.1 36.3667],5.693,4.574,7.224,6.277,5.311,4.018,7.178,5.797,202.0,544.0
2015-05-02,Daegu,SouthKorea,128.6,35.8667,[128.1 35.3667 129.1 36.3667],5.673,4.609,7.224,6.241,5.225,3.975,7.155,5.729,221.0,572.0
2015-05-03,Daegu,SouthKorea,128.6,35.8667,[128.1 35.3667 129.1 36.3667],6.049,4.732,7.521,6.472,5.109,3.793,7.12,5.663,182.0,569.0
2015-05-04,Daegu,SouthKorea,128.6,35.8667,[128.1 35.3667 129.1 36.3667],6.049,4.732,7.521,6.472,5.01,3.776,7.025,5.586,182.0,608.0
2015-05-05,Daegu,SouthKorea,128.6,35.8667,[128.1 35.3667 129.1 36.3667],5.422,4.379,7.224,6.23,4.885,3.739,6.898,5.486,150.0,615.0
2015-05-06,Daegu,SouthKorea,128.6,35.8667,[128.1 35.3667 129.1 36.3667],5.791,4.732,7.119,6.177,4.937,3.647,6.797,5.438,180.0,612.0
2015-05-07,Daegu,SouthKorea,128.6,35.8667,[128.1 35.3667 129.1 36.3667],5.587,4.609,7.086,6.073,4.89,3.675,6.718,5.379,206.0,626.0
2015-05-08,Daegu,SouthKorea,128.6,35.8667,[128.1 35.3667 129.1 36.3667],5.548,4.591,7.086,6.008,4.867,3.629,6.554,5.329,200.0,620.0
2015-05-09,Daegu,SouthKorea,128.6,35.8667,[128.1 35.3667 129.1 36.3667],5.548,4.428,7.086,5.994,4.94,3.623,6.706,5.36,206.0,618.0
2015-05-10,Daegu,SouthKorea,128.6,35.8667,[128.1 35.3667 129.1 36.3667],5.422,4.333,7.086,5.816,4.927,3.587,6.721,5.311,200.0,618.0
2015-05-11,Daegu,SouthKorea,128.6,35.8667,[128.1 35.3667 129.1 36.3667],5.422,4.333,7.086,5.816,5.06,3.618,6.642,5.245,200.0,610.0
2015-05-12,Daegu,SouthKorea,128.6,35.8667,[128.1 35.3667 129.1 36.3667],5.422,4.328,7.068,5.804,4.813,3.472,6.565,5.096,167.0,613.0
2015-05-13,Daegu,SouthKorea,128.6,35.8667,[128.1 35.3667 129.1 36.3667],6.187,4.855,8.012,6.567,4.959,3.583,6.822,5.318,180.0,608.0
2015-05-14,Daegu,SouthKorea,128.6,35.8667,[128.1 35.3667 129.1 36.3667],6.08,4.855,8.026,6.555,4.921,3.582,6.752,5.294,189.0,611.0
2015-05-15,Daegu,SouthKorea,128.6,35.8667,[128.1 35.3667 129.1 36.3667],6.024,4.855,7.382,6.164,5.022,3.799,6.62,5.311,193.0,617.0
2015-05-16,Daegu,SouthKorea,128.6,35.8667,[128.1 35.3667 129.1 36.3667],6.02,4.569,7.349,5.952,5.117,3.812,6.585,5.306,212.0,621.0
2015-05-17,Daegu,SouthKorea,128.6,35.8667,[128.1 35.3667 129.1 36.3667],6.02,4.548,7.349,5.95,5.146,3.913,6.628,5.338,219.0,625.0
2015-05-18,Daegu,SouthKorea,128.6,35.8667,[128.1 35.3667 129.1 36.3667],6.02,4.548,7.349,5.95,5.286,3.997,6.681,5.433,219.0,584.0
2015-05-19,Daegu,SouthKorea,128.6,35.8667,[128.1 35.3667 129.1 36.3667],6.02,4.548,7.349,5.95,5.139,3.821,6.581,5.318,219.0,541.0
2015-05-20,Daegu,SouthKorea,128.6,35.8667,[128.1 35.3667 129.1 36.3667],5.82,4.149,7.086,5.697,5.195,3.769,6.627,5.31,258.0,538.0
2015-05-21,Daegu,SouthKorea,128.6,35.8667,[128.1 35.3667 129.1 36.3667],5.538,3.894,7.121,5.623,5.147,3.69,6.628,5.289,228.0,544.0
2015-05-22,Daegu,SouthKorea,128.6,35.8667,[128.1 35.3667 129.1 36.3667],5.89,3.933,7.897,5.832,5.181,3.76,6.899,5.36,235.0,539.0
2015-05-23,Daegu,SouthKorea,128.6,35.8667,[128.1 35.3667 129.1 36.3667],5.89,3.933,7.897,5.832,5.159,3.708,6.77,5.295,235.0,551.0
2015-05-24,Daegu,SouthKorea,128.6,35.8667,[128.1 35.3667 129.1 36.3667],5.829,3.933,7.586,5.78,5.119,3.733,6.583,5.235,231.0,547.0
2015-05-25,Daegu,SouthKorea,128.6,35.8667,[128.1 35.3667 129.1 36.3667],5.89,3.951,7.837,5.879,5.136,3.744,6.648,5.262,235.0,545.0
2015-05-26,Daegu,SouthKorea,128.6,35.8667,[128.1 35.3667 129.1 36.3667],5.89,3.933,7.837,5.853,5.048,3.613,6.495,5.14,239.0,545.0
2015-05-27,Daegu,SouthKorea,128.6,35.8667,[128.1 35.3667 129.1 36.3667],5.548,3.931,7.168,5.681,5.053,3.69,6.367,5.171,268.0,538.0
2015-05-28,Daegu,SouthKorea,128.6,35.8667,[128.1 35.3667 129.1 36.3667],5.042,3.854,6.5,5.188,4.937,3.634,6.177,4.987,238.0,544.0
2015-05-29,Daegu,SouthKorea,128.6,35.8667,[128.1 35.3667 129.1 36.3667],5.051,3.884,6.519,5.233,4.945,3.601,6.133,4.965,221.0,540.0
2015-05-30,Daegu,SouthKorea,128.6,35.8667,[128.1 35.3667 129.1 36.3667],4.69,3.602,6.427,5.03,4.948,3.575,6.185,4.961,207.0,543.0
2015-05-31,Daegu,SouthKorea,128.6,35.8667,[128.1 35.3667 129.1 36.3667],4.878,3.728,6.165,5.133,5.025,3.607,6.156,5.0,210.0,548.0
2015-06-01,Daegu,SouthKorea,128.6,35.8667,[128.1 35.3667 129.1 36.3667],4.836,3.623,6.089,5.088,4.909,3.444,6.095,4.876,184.0,553.0
2015-06-02,Daegu,SouthKorea,128.6,35.8667,[128.1 35.3667 129.1 36.3667],4.836,3.695,6.165,5.107,4.767,3.361,6.029,4.822,209.0,585.0
2015-06-03,Daegu,SouthKorea,128.6,35.8667,[128.1 35.3667 129.1 36.3667],4.996,3.743,6.219,5.182,4.826,3.383,6.035,4.849,228.0,570.0
2015-06-04,Daegu,SouthKorea,128.6,35.8667,[128.1 35.3667 129.1 36.3667],5.148,3.854,6.573,5.322,4.76,3.378,6.05,4.819,189.0,598.0
2015-06-05,Daegu,SouthKorea,128.6,35.8667,[128.1 35.3667 129.1 36.3667],5.186,3.933,6.573,5.339,4.763,3.511,5.988,4.825,217.0,597.0
2015-06-06,Daegu,SouthKorea,128.6,35.8667,[128.1 35.3667 129.1 36.3667],4.933,3.854,6.066,5.055,4.592,3.425,5.848,4.713,184.0,604.0
2015-06-07,Daegu,SouthKorea,128.6,35.8667,[128.1 35.3667 129.1 36.3667],5.148,3.943,6.513,5.282,4.728,3.511,5.973,4.837,197.0,603.0
2015-06-08,Daegu,SouthKorea,128.6,35.8667,[128.1 35.3667 129.1 36.3667],5.303,3.962,6.636,5.335,4.902,3.501,6.27,4.946,187.0,615.0
2015-06-09,Daegu,SouthKorea,128.6,35.8667,[128.1 35.3667 129.1 36.3667],5.313,4.03,6.636,5.361,4.791,3.392,6.188,4.839,174.0,608.0
2015-06-10,Daegu,SouthKorea,128.6,35.8667,[128.1 35.3667 129.1 36.3667],5.313,4.039,6.639,5.391,4.939,3.426,6.3,4.879,170.0,605.0
2015-06-11,Daegu,SouthKorea,128.6,35.8667,[128.1 35.3667 129.1 36.3667],5.454,4.392,6.674,5.613,4.819,3.393,6.122,4.842,141.0,608.0
2015-06-12,Daegu,SouthKorea,128.6,35.8667,[128.1 35.3667 129.1 36.3667],5.387,3.943,6.661,5.442,4.991,3.529,6.234,4.953,150.0,598.0
2015-06-13,Daegu,SouthKorea,128.6,35.8667,[128.1 35.3667 129.1 36.3667],5.387,3.943,6.661,5.442,4.895,3.475,6.223,4.897,150.0,603.0
2015-06-14,Daegu,SouthKorea,128.6,35.8667,[128.1 35.3667 129.1 36.3667],5.353,3.943,6.661,5.383,4.793,3.422,6.112,4.828,143.0,599.0
2015-06-15,Daegu,SouthKorea,128.6,35.8667,[128.1 35.3667 129.1 36.3667],5.303,3.902,6.68,5.435,4.837,3.406,6.27,4.888,135.0,602.0
2015-06-16,Daegu,SouthKorea,128.6,35.8667,[128.1 35.3667 129.1 36.3667],5.762,4.076,6.748,5.53,5.096,3.622,6.285,5.035,142.0,606.0
2015-06-17,Daegu,SouthKorea,128.6,35.8667,[128.1 35.3667 129.1 36.3667],5.771,4.148,6.766,5.551,5.083,3.691,6.237,5.01,117.0,611.0
2015-06-18,Daegu,SouthKorea,128.6,35.8667,[128.1 35.3667 129.1 36.3667],5.771,3.951,6.674,5.452,5.049,3.651,6.215,4.996,98.0,619.0
2015-06-19,Daegu,SouthKorea,128.6,35.8667,[128.1 35.3667 129.1 36.3667],5.771,3.951,6.674,5.452,5.024,3.704,6.193,5.01,98.0,548.0
2015-06-20,Daegu,SouthKorea,128.6,35.8667,[128.1 35.3667 129.1 36.3667],6.084,3.708,6.781,5.454,4.978,3.583,6.095,4.891,70.0,546.0
2015-06-21,Daegu,SouthKorea,128.6,35.8667,[128.1 35.3667 129.1 36.3667],5.075,3.489,6.453,4.991,4.85,3.589,6.055,4.867,92.0,545.0
2015-06-22,Daegu,SouthKorea,128.6,35.8667,[128.1 35.3667 129.1 36.3667],4.147,3.209,5.771,4.398,4.699,3.543,5.932,4.763,79.0,551.0
2015-06-23,Daegu,SouthKorea,128.6,35.8667,[128.1 35.3667 129.1 36.3667],4.015,3.167,5.771,4.388,4.594,3.455,5.819,4.663,69.0,548.0
2015-06-24,Daegu,SouthKorea,128.6,35.8667,[128.1 35.3667 129.1 36.3667],3.864,3.138,5.526,4.14,4.645,3.495,5.824,4.689,98.0,562.0
2015-06-25,Daegu,SouthKorea,128.6,35.8667,[128.1 35.3667 129.1 36.3667],3.901,3.134,5.499,4.147,4.659,3.527,5.828,4.694,115.0,553.0
2015-06-26,Daegu,SouthKorea,128.6,35.8667,[128.1 35.3667 129.1 36.3667],3.985,3.093,5.526,4.18,4.751,3.671,5.937,4.756,130.0,545.0
2015-06-27,Daegu,SouthKorea,128.6,35.8667,[128.1 35.3667 129.1 36.3667],4.148,3.141,5.526,4.295,4.643,3.515,5.84,4.7,128.0,546.0
2015-06-28,Daegu,SouthKorea,128.6,35.8667,[128.1 35.3667 129.1 36.3667],4.148,3.141,5.526,4.285,4.725,3.604,5.803,4.75,130.0,535.0